Weather History for Elmendorf AFB, AK

Change the Weather History Date:

Wednesday, November 27, 2013

  Actual Average Record
Temperature  
Mean Temperature 26 °F -  
Max Temperature 30 °F 25 °F 51 °F (2004)
Min Temperature 21 °F 13 °F -14 °F (1990)
Degree Days  
Heating Degree Days 38    
Moisture  
Dew Point 26 °F    
Average Humidity 96    
Maximum Humidity 100    
Minimum Humidity 49    
Precipitation  
Precipitation 0.00 in - - ()
Snow  
Snow 0.00 in - - ()
Snow Depth 8.00 in    
Sea Level Pressure  
Sea Level Pressure 29.78 in    
Wind  
Wind Speed 1 mph (ENE)    
Max Wind Speed 17 mph    
Max Gust Speed 23 mph    
Visibility 6 miles    
Events Snow    
Averages and records for this station are not official NWS values.
T = Trace of Precipitation, MM = Missing Value Source: NWS Daily Summary

Daily Weather History Graph

Daily Weather History Graph

Search for Another Location

Airport:

Trip Planner

Search our weather history database for the weather conditions in past years. The results will help you decide how hot, cold, wet, or windy it might be!

Date:

Astronomy

Nov. 27, 2013 Rise Set
Actual Time 9:37 AM AKST 3:56 PM AKST
Civil Twilight 8:40 AM AKST 4:52 PM AKST
Nautical Twilight 7:43 AM AKST 5:49 PM AKST
Astronomical Twilight 6:51 AM AKST 6:42 PM AKST
Moon 2:14 AM AKST (11/27) 2:05 PM AKST (11/27)
Length of Visible Light 8h 12m
Length of Day
6h 19m
Waning Crescent, 30% of the Moon is Illuminated
Nov 27
Waning Crescent
Dec 2
New
Dec 9
First Quarter
Dec 17
Full
Dec 25
Last Quarter

Hourly Weather History & Observations

Time (AKST) Temp. Windchill Dew Point Humidity Pressure Visibility Wind Dir Wind Speed Gust Speed Precip Events Conditions
12:08 AM 26.6 °F - 26.6 °F 100% 29.87 in 2.5 mi Calm Calm - N/A Snow Light Snow
12:23 AM 26.6 °F - 26.6 °F 100% 29.87 in 3.0 mi Calm Calm - N/A Snow Light Snow
12:53 AM 26.6 °F - 26.6 °F 100% 29.87 in 3.0 mi Calm Calm - N/A Snow Light Snow
12:58 AM 27.3 °F - 26.6 °F 97% 29.87 in 3.0 mi Calm Calm - 0.00 in Snow Light Snow
1:28 AM 26.6 °F - 26.6 °F 100% 29.87 in 4.0 mi Calm Calm - N/A Snow Light Snow
1:58 AM 27.1 °F - 26.6 °F 98% 29.86 in 3.0 mi Calm Calm - 0.00 in Snow Light Snow
2:28 AM 26.6 °F - 26.6 °F 100% 29.86 in 3.0 mi Calm Calm - N/A Snow Light Snow
2:33 AM 26.6 °F - 26.6 °F 100% 29.86 in 3.0 mi Calm Calm - N/A Snow Light Snow
2:38 AM 26.6 °F - 26.6 °F 100% 29.86 in 2.5 mi Calm Calm - N/A Snow Light Snow
2:48 AM 26.6 °F - 26.6 °F 100% 29.86 in 3.0 mi Calm Calm - N/A Snow Light Snow
2:58 AM 27.1 °F - 27.0 °F 99% 29.86 in 4.0 mi Calm Calm - 0.00 in Snow Light Snow
3:23 AM 26.6 °F - 26.6 °F 100% 29.86 in 4.0 mi Calm Calm - N/A Snow Light Snow
3:38 AM 26.6 °F - 26.6 °F 100% 29.85 in 7.0 mi Calm Calm - N/A Snow Light Snow
3:58 AM 27.1 °F - 27.0 °F 99% 29.85 in 6.0 mi Calm Calm - 0.00 in Snow Light Snow
4:48 AM 26.6 °F - 26.6 °F 100% 29.83 in 5.0 mi Calm Calm - N/A Snow Light Snow
4:58 AM 27.0 °F - 26.8 °F 99% 29.83 in 6.0 mi Calm Calm - 0.00 in Snow Light Snow
5:13 AM 26.6 °F - 26.6 °F 100% 29.83 in 5.0 mi Calm Calm - N/A Snow Light Snow
5:34 AM 26.6 °F - 26.6 °F 100% 29.83 in 5.0 mi ESE 1.2 mph - N/A Snow Light Snow
5:44 AM 26.6 °F - 26.6 °F 100% 29.83 in 5.0 mi Calm Calm - N/A Snow Light Snow
5:58 AM 26.6 °F - 26.6 °F 100% 29.83 in 6.0 mi Calm Calm - 0.00 in Snow Light Snow
6:12 AM 26.6 °F - 26.6 °F 100% 29.83 in 6.0 mi Calm Calm - N/A Snow Light Snow
6:17 AM 26.6 °F - 26.6 °F 100% 29.82 in 5.0 mi Calm Calm - N/A Snow Light Snow
6:42 AM 26.6 °F - 26.6 °F 100% 29.82 in 5.0 mi Calm Calm - N/A Snow Light Snow
6:52 AM 26.6 °F - 26.6 °F 100% 29.81 in 4.0 mi Calm Calm - N/A Snow Light Snow
6:58 AM 26.6 °F - 26.4 °F 99% 29.81 in 3.0 mi Calm Calm - 0.00 in Snow Light Snow
7:03 AM 26.6 °F - 26.6 °F 100% 29.81 in 4.0 mi Calm Calm - N/A Snow Light Snow
7:13 AM 26.6 °F - 26.6 °F 100% 29.81 in 6.0 mi Calm Calm - N/A Snow Light Snow
7:28 AM 26.6 °F - 26.6 °F 100% 29.81 in 6.0 mi Calm Calm - N/A Snow Light Snow
7:29 AM 26.6 °F - 26.6 °F 100% 29.81 in 6.0 mi Calm Calm - N/A   Overcast
7:30 AM 26.6 °F - 26.6 °F 100% 29.81 in 6.0 mi Calm Calm - N/A Snow Light Snow
7:35 AM 26.6 °F - 26.6 °F 100% 29.81 in 5.0 mi Calm Calm - N/A Snow Light Snow
7:53 AM 24.8 °F - 24.8 °F 100% 29.81 in 8.0 mi Calm Calm - N/A Snow Light Snow
7:58 AM 25.7 °F - 25.5 °F 99% 29.80 in 8.0 mi Calm Calm - 0.00 in Snow Light Snow
7:59 AM 26.6 °F - 24.8 °F 93% 29.80 in 9.0 mi Calm Calm - N/A   Overcast
8:04 AM 26.6 °F - 26.6 °F 100% 29.80 in 10.0 mi Calm Calm - N/A   Overcast
8:18 AM 26.6 °F - 26.6 °F 100% 29.80 in 8.0 mi Calm Calm - N/A Snow Light Snow
8:32 AM 26.6 °F - 26.6 °F 100% 29.80 in 7.0 mi Calm Calm - N/A Snow Light Snow
8:37 AM 26.6 °F - 26.6 °F 100% 29.81 in 6.0 mi Calm Calm - N/A Snow Light Snow
8:58 AM 27.5 °F - 27.3 °F 99% 29.80 in 4.0 mi Calm Calm - 0.00 in Snow Light Snow
9:08 AM 28.4 °F - 28.4 °F 100% 29.80 in 5.0 mi Calm Calm - N/A Snow Light Snow
9:18 AM 28.4 °F - 26.6 °F 93% 29.80 in 2.5 mi Calm Calm - N/A Snow Light Snow
9:23 AM 28.4 °F - 26.6 °F 93% 29.81 in 1.5 mi Calm Calm - N/A Snow Light Snow
9:28 AM 26.6 °F - 26.6 °F 100% 29.81 in 1.0 mi Calm Calm - N/A Snow Light Snow
9:33 AM 28.4 °F - 26.6 °F 93% 29.80 in 1.2 mi Calm Calm - N/A Snow Light Snow
9:43 AM 28.4 °F - 28.4 °F 100% 29.80 in 1.5 mi Calm Calm - N/A Snow Light Snow
9:48 AM 28.4 °F 24.6 °F 28.4 °F 100% 29.80 in 2.0 mi ENE 3.5 mph - N/A Snow Light Snow
9:53 AM 28.4 °F 24.6 °F 28.4 °F 100% 29.80 in 3.0 mi ENE 3.5 mph - N/A Snow Light Snow
9:58 AM 28.4 °F - 28.4 °F 100% 29.80 in 2.5 mi NE 1.2 mph - 0.00 in Snow Light Snow
10:03 AM 28.4 °F 24.6 °F 28.4 °F 100% 29.79 in 3.0 mi East 3.5 mph - N/A Snow Light Snow
10:18 AM 28.4 °F 23.3 °F 28.4 °F 100% 29.79 in 7.0 mi East 4.6 mph - N/A Snow Light Snow
10:28 AM 28.4 °F 24.6 °F 28.4 °F 100% 29.79 in 6.0 mi East 3.5 mph - N/A Snow Light Snow
10:38 AM 28.4 °F - 28.4 °F 100% 29.79 in 4.0 mi ENE 1.2 mph - N/A Snow Light Snow
10:48 AM 28.4 °F - 28.4 °F 100% 29.79 in 3.0 mi Calm Calm - N/A Snow Light Snow
10:58 AM 28.0 °F 24.2 °F 27.9 °F 99% 29.78 in 3.0 mi ENE 3.5 mph - 0.00 in Snow Light Snow
11:03 AM 28.4 °F 24.6 °F 28.4 °F 100% 29.78 in 3.0 mi ENE 3.5 mph - N/A Snow Light Snow
11:08 AM 28.4 °F 24.6 °F 28.4 °F 100% 29.78 in 3.0 mi East 3.5 mph - N/A Snow Light Snow
11:22 AM 28.4 °F - 28.4 °F 100% 29.77 in 6.0 mi ENE 2.3 mph - N/A   Overcast
11:23 AM 28.4 °F - 28.4 °F 100% 29.77 in 6.0 mi ENE 2.3 mph - N/A Snow Light Snow
11:25 AM 28.4 °F - 28.4 °F 100% 29.78 in 7.0 mi ENE 1.2 mph - N/A Snow Light Snow
11:36 AM 28.4 °F - 28.4 °F 100% 29.78 in 8.0 mi ENE 1.2 mph - N/A Snow Light Snow
11:38 AM 28.4 °F - 28.4 °F 100% 29.78 in 8.0 mi ENE 1.2 mph - N/A Snow Light Snow
11:45 AM 28.4 °F 24.6 °F 28.4 °F 100% 29.78 in 7.0 mi East 3.5 mph - N/A Snow Light Snow
11:50 AM 28.4 °F 24.6 °F 28.4 °F 100% 29.77 in 5.0 mi East 3.5 mph - N/A Snow Light Snow
11:55 AM 28.4 °F 23.3 °F 28.4 °F 100% 29.77 in 5.0 mi East 4.6 mph - N/A Snow Light Snow
11:58 AM 28.8 °F 23.7 °F 28.6 °F 99% 29.77 in 5.0 mi East 4.6 mph - 0.00 in Snow Light Snow
12:03 PM 28.4 °F 23.3 °F 28.4 °F 100% 29.77 in 6.0 mi East 4.6 mph - N/A Snow Light Snow
12:12 PM 28.4 °F 23.3 °F 28.4 °F 100% 29.77 in 9.0 mi East 4.6 mph - N/A   Overcast
12:27 PM 28.4 °F - 28.4 °F 100% 29.77 in 10.0 mi East 2.3 mph - N/A   Overcast
12:52 PM 28.4 °F 23.3 °F 28.4 °F 100% 29.76 in 10.0 mi East 4.6 mph - N/A   Overcast
12:58 PM 28.8 °F - 28.2 °F 98% 29.75 in 9.0 mi ENE 2.3 mph - 0.00 in   Overcast
1:00 PM 28.4 °F - 28.4 °F 100% 29.76 in 8.0 mi ENE 2.3 mph - N/A Snow Light Snow
1:15 PM 28.4 °F 24.6 °F 28.4 °F 100% 29.76 in 7.0 mi East 3.5 mph - N/A Snow Light Snow
1:25 PM 28.4 °F 23.3 °F 28.4 °F 100% 29.76 in 5.0 mi ENE 4.6 mph - N/A   Overcast
1:36 PM 28.4 °F 24.6 °F 28.4 °F 100% 29.75 in 4.0 mi ENE 3.5 mph - N/A Snow Light Snow
1:58 PM 28.9 °F - 28.8 °F 99% 29.75 in 2.5 mi ENE 1.2 mph - 0.00 in Snow Light Snow
2:04 PM 28.4 °F 24.6 °F 28.4 °F 100% 29.75 in 2.5 mi East 3.5 mph - N/A Snow Light Snow
2:09 PM 28.4 °F - 28.4 °F 100% 29.74 in 2.0 mi ENE 2.3 mph - N/A Snow Light Snow
2:14 PM 28.4 °F - 28.4 °F 100% 29.74 in 1.5 mi NE 2.3 mph - N/A Snow Light Snow
2:51 PM 28.4 °F - 28.4 °F 100% 29.73 in 2.0 mi Calm Calm - N/A Snow Light Snow
2:58 PM 29.3 °F - 29.1 °F 99% 29.73 in 2.0 mi Calm Calm - 0.00 in Snow Light Snow
3:04 PM 30.2 °F - 28.4 °F 93% 29.73 in 5.0 mi Calm Calm - N/A Snow Light Snow
3:13 PM 30.2 °F - 28.4 °F 93% 29.72 in 5.0 mi Calm Calm - N/A Snow Light Snow
3:26 PM 30.2 °F - 28.4 °F 93% 29.72 in 9.0 mi East 2.3 mph - N/A   Light Freezing Drizzle
3:38 PM 30.2 °F 25.4 °F 28.4 °F 93% 29.71 in 5.0 mi East 4.6 mph - N/A Snow Light Snow
3:58 PM 29.5 °F - 29.3 °F 99% 29.71 in 6.0 mi Calm Calm - 0.00 in   Overcast
4:08 PM 30.2 °F - 28.4 °F 93% 29.71 in 5.0 mi Calm Calm - N/A Snow Light Snow
4:13 PM 30.2 °F - 28.4 °F 93% 29.71 in 5.0 mi Calm Calm - N/A   Overcast
4:19 PM 30.2 °F - 28.4 °F 93% 29.71 in 6.0 mi Calm Calm - N/A Snow Light Snow
4:27 PM 30.2 °F - 28.4 °F 93% 29.71 in 10.0 mi Calm Calm - N/A   Overcast
4:42 PM 28.4 °F - 28.4 °F 100% 29.71 in 6.0 mi Calm Calm - N/A   Overcast
4:57 PM 28.4 °F - 28.4 °F 100% 29.71 in 6.0 mi Calm Calm - N/A   Overcast
4:58 PM 28.4 °F - 28.4 °F 100% 29.71 in 6.0 mi Calm Calm - 0.00 in   Overcast
5:23 PM 28.4 °F - 28.4 °F 100% 29.71 in 6.0 mi Calm Calm - N/A   Overcast
5:28 PM 28.4 °F - 28.4 °F 100% 29.71 in 6.0 mi Calm Calm - N/A   Overcast
5:58 PM 28.9 °F - 28.8 °F 99% 29.70 in 4.0 mi Calm Calm - N/A   Overcast
6:08 PM 28.4 °F 22.2 °F 28.4 °F 100% 29.71 in 4.0 mi NW 5.8 mph - N/A   Overcast
6:23 PM 28.4 °F 22.2 °F 28.4 °F 100% 29.70 in 4.0 mi NW 5.8 mph - N/A   Overcast
6:43 PM 28.4 °F 23.3 °F 26.6 °F 93% 29.70 in 10.0 mi NW 4.6 mph - N/A   Overcast
6:53 PM 28.4 °F 22.2 °F 24.8 °F 86% 29.70 in 10.0 mi West 5.8 mph - N/A   Overcast
6:58 PM 28.9 °F 23.9 °F 23.5 °F 80% 29.70 in 10.0 mi WNW 4.6 mph - N/A   Overcast
7:58 PM 27.9 °F 18.4 °F 16.7 °F 63% 29.70 in 10.0 mi WNW 10.4 mph - N/A   Overcast
8:21 PM 26.6 °F 13.8 °F 15.8 °F 64% 29.70 in 10.0 mi WNW 17.3 mph 23.0 mph N/A   Overcast
8:31 PM 26.6 °F 15.2 °F 14.0 °F 59% 29.70 in 10.0 mi West 13.8 mph 23.0 mph N/A   Overcast
8:58 PM 25.7 °F 15.1 °F 12.4 °F 57% 29.70 in 10.0 mi WNW 11.5 mph - 0.00 in   Overcast
9:58 PM 24.1 °F 15.2 °F 8.2 °F 51% 29.72 in 10.0 mi WNW 8.1 mph - N/A   Overcast
10:58 PM 23.0 °F 10.6 °F 6.4 °F 49% 29.73 in 10.0 mi WNW 13.8 mph - N/A   Overcast
11:58 PM 21.9 °F 11.7 °F 5.9 °F 50% 29.74 in 10.0 mi NW 9.2 mph - N/A   Overcast